Location: Cactus School
(34.5700°N, 118.0931°W)
Time: 21:48:19
(UTC-07:00)

Vanguard 2 - Pass Details

Date: 01 May 2024
Orbit: 553 x 2914 km, 32.9° (Epoch: 18 May)

Event Time Altitude Azimuth Distance (km) Brightness Sun altitude
Rises 20:28:29 0° 192° (SSW) 3,355 10.7 -10.4°
Reaches altitude 10° 20:31:42 10° 170° (S) 2,734 10.0 -11.0°
Maximum altitude 20:35:39 16° 133° (SE) 2,695 9.7 -11.7°
Enters shadow 20:37:40 15° 117° (ESE) 2,986 9.8 -12.1°
